"2010-07-25 00:00:00",11821,5.385,167.5,1.533,0.246,20.45,108.9621,22.23,23.06,38.54,0,111,13.17,23.06,129.5
"2010-07-25 00:00:30",11822,5.435,168.1,2.946,0.183,20.33,108.9618,22.23,23.07,38.36,0,111,13.17,23.06,130.1
"2010-07-25 00:01:00",11823,5.523,178.1,2.601,0.21,20.3,108.9621,22.23,23.07,38.38,0,111,13.17,23.06,140.1
"2010-07-25 00:01:30",11824,5.532,173.3,1.801,0.364,20.27,108.9615,22.23,23.07,38.37,0,111,13.17,23.06,135.3
"2010-07-25 00:02:00",11825,5.785,179.7,4.765,0.331,20.25,108.9612,22.23,23.07,38.38,0,111,13.17,23.06,141.7
"2010-07-25 00:02:30",11826,6.134,178.3,2.958,0.328,20.23,108.9618,22.23,23.07,38.37,0,111,13.17,23.06,140.3
"2010-07-25 00:03:00",11827,5.789,178.2,3.955,0.484,20.23,108.9615,22.23,23.07,38.36,0,111,13.17,23.06,140.2
"2010-07-25 00:03:30",11828,5.728,179.9,2.995,0.556,20.24,108.9594,22.22,23.09,38.44,0,111,13.17,23.05,141.9
"2010-07-25 00:04:00",11829,5.68,173.3,5.147,0.548,20.24,108.96,22.22,23.08,38.56,0,111,13.17,23.05,135.3
"2010-07-25 00:04:30",11830,6.523,169.1,6.547,0.304,20.26,108.9577,22.22,23.09,38.64,0,111,13.17,23.05,131.1
"2010-07-25 00:05:00",11831,6.157,176.8,4.162,0.184,20.22,108.9594,22.22,23.09,38.61,0,111,13.17,23.05,138.8
"2010-07-25 00:05:30",11832,6.098,173,7.012,0.266,20.21,108.953,22.21,23.09,38.46,0,111,13.17,23.03,135.0
"2010-07-25 00:06:00",11833,6.03,174.7,9.83,0.398,20.18,108.9516,22.2,23.09,38.44,0,111,13.17,23.03,136.7
"2010-07-25 00:06:30",11834,6.398,179.9,2.115,0.195,20.09,108.9433,22.18,23.08,38.38,0,111,13.17,23.01,141.9
"2010-07-25 00:07:00",11835,5.861,176.9,2.419,0.333,20.15,108.9449,22.18,23.08,38.35,0,111,13.17,23.01,138.9
"2010-07-25 00:07:30",11836,5.366,177,3.267,0.535,20.02,108.9467,22.19,23.09,38.36,0,111,13.17,23.02,139.0
"2010-07-25 00:08:00",11837,6.057,182.5,1.849,0.357,20.01,108.9546,22.21,23.09,38.29,0,111,13.17,23.04,144.5
"2010-07-25 00:08:30",11838,5.192,173.3,2.824,0.241,20.07,108.9696,22.25,23.11,38.38,0,111,13.16,23.08,135.3
"2010-07-25 00:09:00",11839,5.819,177.4,2.629,0.364,20.05,108.9707,22.25,23.1,38.36,0,111,13.16,23.08,139.4
"2010-07-25 00:09:30",11840,5.548,169.2,5.415,0.176,20.06,108.9689,22.25,23.13,38.44,0,111,13.16,23.08,131.2
"2010-07-25 00:10:00",11841,4.673,168.9,5.662,0.343,20,108.9698,22.25,23.13,38.53,0,111,13.17,23.08,130.9
"2010-07-25 00:10:30",11842,5.256,170.1,6.53,0.576,19.97,108.9748,22.26,23.14,38.38,0,111,13.17,23.09,132.1
"2010-07-25 00:11:00",11843,4.925,165.1,3.804,0.504,20.01,108.9829,22.28,23.14,38.47,0,111,13.17,23.11,127.1
"2010-07-25 00:11:30",11844,5.432,166.4,5.027,0.272,20.01,109.0003,22.33,23.16,38.5,0,111,13.17,23.16,128.4
"2010-07-25 00:12:00",11845,4.602,161.4,2.874,0.257,19.88,109.0017,22.33,23.17,38.28,0,111,13.17,23.16,123.4
"2010-07-25 00:12:30",11846,5.329,168.5,7.298,0.438,19.91,109.002,22.33,23.17,38.29,0,111,13.17,23.16,130.5
"2010-07-25 00:13:00",11847,4.844,161.2,4.428,0.24,19.91,109.002,22.33,23.2,38.41,0,111,13.17,23.16,123.2
"2010-07-25 00:13:30",11848,5.194,165.4,3.791,0.252,19.84,109.002,22.33,23.19,38.14,0,111,13.17,23.16,127.4
"2010-07-25 00:14:00",11849,4.206,157.1,9.99,0.413,19.93,109.0043,22.34,23.19,38.39,0,111,13.17,23.17,119.1
"2010-07-25 00:14:30",11850,3.914,151.2,3.897,0.325,19.9,109.0166,22.37,23.22,38.48,0,111,13.17,23.20,113.2
"2010-07-25 00:15:00",11851,4.38,155.8,3.446,0.209,20,109.0228,22.38,23.2,38.7,0,111,13.17,23.21,117.8
"2010-07-25 00:15:30",11852,4.481,155.6,4.786,0.296,20.04,109.034,22.41,23.23,39.07,0,111,13.17,23.24,117.6
"2010-07-25 00:16:00",11853,4.585,160.2,9.25,0.439,19.94,109.0348,22.42,23.24,38.85,0,111,13.17,23.25,122.2
"2010-07-25 00:16:30",11854,4.497,150.8,5.232,0.395,19.88,109.0327,22.41,23.25,38.54,0,111,13.17,23.24,112.8
"2010-07-25 00:17:00",11855,5.23,151.7,3.248,0.433,19.72,109.0272,22.4,23.25,37.96,0,111,13.17,23.23,113.7
"2010-07-25 00:17:30",11856,4.918,154.2,2.471,0.379,19.76,109.0265,22.39,23.24,37.94,0,111,13.17,23.22,116.2
"2010-07-25 00:18:00",11857,5.173,154.1,4.807,0.319,19.96,109.0265,22.39,23.24,38.22,0,111,13.17,23.22,116.1
"2010-07-25 00:18:30",11858,6.066,153.1,3.534,0.431,20.01,109.0262,22.39,23.25,38.17,0,111,13.17,23.22,115.1
"2010-07-25 00:19:00",11859,6.34,161.7,4.641,0.367,20.25,109.027,22.4,23.25,38.44,0,111,13.17,23.23,123.7
"2010-07-25 00:19:30",11860,6.423,158.7,4.512,0.259,20.23,109.0505,22.46,23.28,38.43,0,111,13.16,23.29,120.7
"2010-07-25 00:20:00",11861,5.927,159.6,3.005,0.607,20.24,109.0489,22.45,23.29,38.25,0,111,13.17,23.28,121.6
"2010-07-25 00:20:30",11862,5.645,159.6,2.76,0.356,19.97,109.0462,22.44,23.3,37.94,0,111,13.17,23.27,121.6
"2010-07-25 00:21:00",11863,5.554,156.3,3.654,0.214,19.95,109.0391,22.43,23.3,37.89,0,111,13.17,23.26,118.3
"2010-07-25 00:21:30",11864,5.503,143.1,4.177,0.267,20.03,109.0358,22.42,23.29,37.93,0,111,13.16,23.25,105.1
"2010-07-25 00:22:00",11865,4.862,146.9,5.286,0.407,20.02,109.0232,22.39,23.29,37.95,0,111,13.15,23.22,108.9
"2010-07-25 00:22:30",11866,5.481,150.4,4.666,0.258,20.03,109.0056,22.34,23.28,37.78,0,111.1,13.15,23.17,112.4
"2010-07-25 00:23:00",11867,6.418,162.4,4.9,0.54,20.21,108.9999,22.33,23.25,38.03,0,111,13.15,23.16,124.4
"2010-07-25 00:23:30",11868,6.259,173.3,5.113,0.779,20.34,108.9996,22.33,23.26,38.32,0,111,13.15,23.15,135.3
"2010-07-25 00:24:00",11869,5.761,162.4,4.958,0.46,20.42,108.9996,22.33,23.24,38.22,0,111,13.15,23.15,124.4
"2010-07-25 00:24:30",11870,4.925,168,5.724,0.598,20.42,109.0005,22.33,23.23,38.27,0,111,13.15,23.16,130.0
"2010-07-25 00:25:00",11871,4.379,163.9,3.138,0.338,20.36,108.9949,22.31,23.23,38.23,0,111,13.15,23.14,125.9
"2010-07-25 00:25:30",11872,5.385,182.7,6.26,0.238,20.41,108.9806,22.28,23.22,38.33,0,111,13.15,23.11,144.7
"2010-07-25 00:26:00",11873,5.702,183.7,2.991,0.909,20.43,108.9677,22.24,23.2,38.31,0,111,13.15,23.07,145.7
"2010-07-25 00:26:30",11874,6.283,175.8,4.261,0.374,20.53,108.9674,22.24,23.18,38.75,0,111,13.15,23.07,137.8
"2010-07-25 00:27:00",11875,5.157,177.8,5.469,0.253,20.41,108.9671,22.24,23.17,38.74,0,111,13.15,23.07,139.8
"2010-07-25 00:27:30",11876,5.65,180.8,2.114,0.233,20.39,108.9674,22.24,23.17,38.37,0,111,13.15,23.07,142.8
"2010-07-25 00:28:00",11877,5.872,186.1,2.32,0.147,20.35,108.9708,22.25,23.16,38.41,0,111,13.16,23.08,148.1
"2010-07-25 00:28:30",11878,5.657,187.9,2.743,0.266,20.39,108.9726,22.26,23.14,38.48,0,111,13.16,23.09,149.9
"2010-07-25 00:29:00",11879,5.414,188.5,2.547,0.205,20.46,108.97,22.25,23.14,38.6,0,111,13.16,23.08,150.5
"2010-07-25 00:29:30",11880,5.668,185.3,3.549,0.365,20.46,108.9629,22.23,23.12,38.63,0,111.1,13.15,23.06,147.3
"2010-07-25 00:30:00",11881,5.491,188.5,2.255,0.267,20.48,108.9491,22.2,23.12,38.68,0,111,13.16,23.02,150.5
"2010-07-25 00:30:30",11882,5.404,189,3.908,0.228,20.47,108.9492,22.2,23.11,38.74,0,111,13.16,23.03,151.0
"2010-07-25 00:31:00",11883,5.404,193.8,3.183,0.217,20.45,108.9526,22.2,23.1,38.68,0,111,13.16,23.03,155.8
"2010-07-25 00:31:30",11884,4.628,197.8,4.203,0.167,20.4,108.9556,22.21,23.11,38.66,0,111.1,13.16,23.04,159.8
"2010-07-25 00:32:00",11885,4.889,201.8,3.582,0.169,20.35,108.9604,22.22,23.1,38.73,0,111,13.16,23.05,163.8
"2010-07-25 00:32:30",11886,5.392,190.8,4.018,0.357,20.35,108.9657,22.24,23.09,38.79,0,111,13.16,23.07,152.8
"2010-07-25 00:33:00",11887,5.901,173.5,5.404,0.333,20.47,108.9794,22.27,23.12,39.1,0,111.1,13.16,23.10,135.5
"2010-07-25 00:33:30",11888,5.735,177.6,3.067,0.441,20.46,108.9864,22.29,23.13,39.23,0,111.1,13.16,23.12,139.6
"2010-07-25 00:34:00",11889,5.569,165.3,4.262,0.491,20.4,108.9867,22.29,23.14,39.25,0,111,13.16,23.12,127.3
"2010-07-25 00:34:30",11890,5.711,166.6,2.291,0.277,20.31,108.9894,22.3,23.15,38.84,0,111,13.16,23.13,128.6
"2010-07-25 00:35:00",11891,6.415,169.5,4.309,0.342,20.29,108.9875,22.29,23.16,38.85,0,111,13.16,23.12,131.5
"2010-07-25 00:35:30",11892,5.771,187.2,3.814,0.421,20.41,108.9871,22.29,23.16,39.25,0,111,13.16,23.12,149.2
"2010-07-25 00:36:00",11893,5.217,177.9,6.656,0.196,20.3,108.9842,22.29,23.17,39.34,0,111,13.16,23.12,139.9
"2010-07-25 00:36:30",11894,5.039,173.2,5.233,0.318,20.31,108.9858,22.29,23.15,39.15,0,111,13.16,23.12,135.2
"2010-07-25 00:37:00",11895,4.645,185.7,3.633,0.333,20.3,108.9827,22.28,23.15,39.43,0,111,13.16,23.11,147.7
"2010-07-25 00:37:30",11896,4.631,176.2,5.248,0.187,20.23,108.9788,22.27,23.15,39.01,0,111,13.16,23.10,138.2
"2010-07-25 00:38:00",11897,4.461,167.9,4.348,0.352,20.2,108.9754,22.26,23.16,38.81,0,111,13.16,23.09,129.9
"2010-07-25 00:38:30",11898,4.307,163.6,2.926,0.261,20.07,108.9769,22.27,23.16,38.66,0,111,13.16,23.10,125.6
"2010-07-25 00:39:00",11899,4.088,176.5,4.703,0.298,20.14,108.9735,22.26,23.14,38.74,0,111,13.15,23.09,138.5
"2010-07-25 00:39:30",11900,4.375,173.7,6.437,0.205,20.16,108.9702,22.25,23.14,38.9,0,111,13.15,23.08,135.7
"2010-07-25 00:40:00",11901,4.711,158.1,5.171,0.944,20.21,108.9677,22.24,23.14,39.06,0,111,13.15,23.07,120.1
"2010-07-25 00:40:30",11902,6.478,157.8,3.706,0.612,20.3,108.9665,22.24,23.15,39.32,0,111,13.15,23.07,119.8
"2010-07-25 00:41:00",11903,7.533,167.8,5.279,0.357,20.33,108.9659,22.24,23.16,39.23,0,111.1,13.15,23.07,129.8
"2010-07-25 00:41:30",11904,6.707,176.2,3.833,0.486,20.31,108.9656,22.24,23.15,39.23,0,111,13.15,23.07,138.2
"2010-07-25 00:42:00",11905,6.484,182.2,3.994,0.456,20.3,108.9653,22.24,23.14,39.17,0,111,13.15,23.07,144.2
"2010-07-25 00:42:30",11906,6.127,192.2,3.062,0.257,20.31,108.9653,22.24,23.14,39.2,0,111,13.15,23.07,154.2
"2010-07-25 00:43:00",11907,5.816,192.2,2.98,0.21,20.3,108.9659,22.24,23.12,39.19,0,111,13.15,23.07,154.2
"2010-07-25 00:43:30",11908,5.738,192.3,2.436,0.227,20.32,108.9656,22.24,23.13,39.34,0,111,13.15,23.07,154.3
"2010-07-25 00:44:00",11909,5.632,190.7,3.999,0.262,20.34,108.9653,22.24,23.14,39.67,0,111,13.15,23.07,152.7
"2010-07-25 00:44:30",11910,5.842,180.2,4.135,0.285,20.31,108.9653,22.24,23.13,39.54,0,111,13.15,23.07,142.2
"2010-07-25 00:45:00",11911,5.821,175.3,1.657,0.319,20.26,108.9647,22.24,23.12,39.15,0,111,13.15,23.07,137.3
"2010-07-25 00:45:30",11912,6.164,176.7,2.908,0.383,20.3,108.9591,22.22,23.1,39.28,0,111,13.16,23.05,138.7
"2010-07-25 00:46:00",11913,6.689,177.9,2.102,0.152,20.28,108.9482,22.19,23.1,39.31,0,111,13.16,23.02,139.9
"2010-07-25 00:46:30",11914,6.504,176.4,2.598,0.256,20.29,108.9423,22.18,23.1,39.37,0,111,13.16,23.01,138.4
"2010-07-25 00:47:00",11915,5.841,168.7,2.711,0.22,20.32,108.9426,22.18,23.09,39.32,0,111.1,13.16,23.01,130.7
"2010-07-25 00:47:30",11916,5.55,167.7,1.938,0.387,20.3,108.9479,22.19,23.08,39.27,0,111,13.16,23.02,129.7
"2010-07-25 00:48:00",11917,5.78,175.7,3.98,0.325,20.33,108.958,22.22,23.12,39.27,0,111,13.16,23.05,137.7
"2010-07-25 00:48:30",11918,5.563,172.3,2.796,0.176,20.38,108.9577,22.22,23.11,39.23,0,111,13.16,23.05,134.3
"2010-07-25 00:49:00",11919,5.249,174.8,2.726,0.361,20.42,108.9625,22.23,23.08,39.21,0,111,13.16,23.06,136.8
"2010-07-25 00:49:30",11920,5.42,169.1,3.178,0.323,20.52,108.9639,22.23,23.12,39.43,0,111.1,13.16,23.06,131.1
"2010-07-25 00:50:00",11921,4.61,171.6,5.045,0.43,20.53,108.9659,22.24,23.11,39.54,0,111,13.16,23.07,133.6
"2010-07-25 00:50:30",11922,5.026,173.3,4.12,0.354,20.53,108.9653,22.24,23.1,39.71,0,111,13.16,23.07,135.3
"2010-07-25 00:51:00",11923,4.684,181.8,3.783,0.292,20.52,108.9659,22.24,23.11,39.83,0,111,13.16,23.07,143.8
"2010-07-25 00:51:30",11924,4.473,177,3.818,0.219,20.48,108.9656,22.24,23.12,39.46,0,111,13.16,23.07,139.0
"2010-07-25 00:52:00",11925,5.477,165.7,5.403,0.406,20.53,108.9656,22.24,23.12,39.75,0,111.1,13.16,23.07,127.7
"2010-07-25 00:52:30",11926,5.047,185.6,6.119,0.311,20.47,108.9668,22.24,23.14,39.73,0,111,13.16,23.07,147.6
"2010-07-25 00:53:00",11927,4.535,194.9,4.515,0.515,20.46,108.9656,22.24,23.12,39.75,0,111,13.16,23.07,156.9
"2010-07-25 00:53:30",11928,5.151,190.5,6.279,0.632,20.47,108.9671,22.24,23.14,39.87,0,111,13.16,23.07,152.5
"2010-07-25 00:54:00",11929,5.424,162.2,8.83,0.649,20.4,108.9685,22.25,23.14,39.99,0,111,13.16,23.07,124.2
"2010-07-25 00:54:30",11930,6.535,174.7,9.79,0.603,20.44,108.9716,22.25,23.16,40.24,0,111,13.16,23.08,136.7
"2010-07-25 00:55:00",11931,5.067,190.4,6.469,0.307,20.42,108.9741,22.26,23.15,40.2,0,111,13.16,23.09,152.4
"2010-07-25 00:55:30",11932,4.765,185.2,13.16,0.294,20.39,108.9769,22.27,23.16,39.96,0,111,13.16,23.10,147.2
"2010-07-25 00:56:00",11933,4.495,172,6.508,0.257,20.29,108.9828,22.28,23.16,39.6,0,111,13.15,23.11,134.0
"2010-07-25 00:56:30",11934,4.929,173.4,3.917,0.479,20.25,108.9921,22.31,23.17,39.49,0,111,13.15,23.14,135.4
"2010-07-25 00:57:00",11935,5.074,173.5,2.32,0.359,20.27,108.9917,22.3,23.16,39.46,0,111,13.15,23.13,135.5
"2010-07-25 00:57:30",11936,4.495,182.6,5.219,0.319,20.24,108.9931,22.31,23.17,39.33,0,111,13.15,23.14,144.6
"2010-07-25 00:58:00",11937,4.887,180.7,2.584,0.517,20.24,108.9861,22.29,23.17,39.39,0,111,13.15,23.12,142.7
"2010-07-25 00:58:30",11938,5.987,180.5,1.718,0.191,20.25,108.9695,22.25,23.17,39.45,0,111,13.15,23.08,142.5
"2010-07-25 00:59:00",11939,6.189,179.8,1.635,0.462,20.27,108.9653,22.24,23.15,39.75,0,111,13.15,23.07,141.8
"2010-07-25 00:59:30",11940,5.989,179.9,2.273,0.267,20.25,108.9653,22.24,23.15,39.78,0,111,13.15,23.07,141.9
"2010-07-25 01:00:00",11941,5.693,183.1,1.956,0.299,20.3,108.9656,22.24,23.16,39.57,0,111,13.15,23.07,145.1
"2010-07-25 01:00:30",11942,5.921,181.3,1.667,0.367,20.27,108.9681,22.24,23.16,39.43,0,111,13.15,23.07,143.3
"2010-07-25 01:01:00",11943,5.841,176,4.263,0.293,20.29,108.972,22.25,23.16,39.75,0,111,13.15,23.08,138.0
"2010-07-25 01:01:30",11944,5.811,175.6,2.764,0.275,20.26,108.9734,22.26,23.16,39.99,0,111,13.15,23.09,137.6
"2010-07-25 01:02:00",11945,6.177,173.4,2.324,0.535,20.3,108.9703,22.25,23.17,39.97,0,111,13.15,23.08,135.4
"2010-07-25 01:02:30",11946,6.237,176.6,3.365,0.276,20.32,108.9788,22.27,23.16,39.9,0,111,13.15,23.10,138.6
"2010-07-25 01:03:00",11947,6.076,175.1,5.288,0.382,20.34,108.9782,22.27,23.16,39.81,0,111,13.16,23.10,137.1
"2010-07-25 01:03:30",11948,5.316,173.6,4.682,0.49,20.35,108.9771,22.27,23.16,39.87,0,111,13.16,23.10,135.6
"2010-07-25 01:04:00",11949,4.716,177.3,1.995,0.229,20.31,108.9748,22.26,23.17,39.92,0,111,13.16,23.09,139.3
"2010-07-25 01:04:30",11950,4.396,181.6,2.104,0.137,20.29,108.9675,22.24,23.15,39.8,0,111,13.15,23.07,143.6
"2010-07-25 01:05:00",11951,4.23,179.1,2.767,0.151,20.25,108.9661,22.24,23.16,39.82,0,111,13.16,23.07,141.1
"2010-07-25 01:05:30",11952,4.599,178.1,4.988,0.275,20.29,108.9658,22.24,23.16,39.99,0,111,13.16,23.07,140.1
"2010-07-25 01:06:00",11953,5.125,191.1,4.184,0.183,20.3,108.9653,22.24,23.16,39.89,0,111,13.16,23.07,153.1
"2010-07-25 01:06:30",11954,5.08,190.3,5.173,0.248,20.31,108.9653,22.24,23.14,40.15,0,111,13.15,23.07,152.3
"2010-07-25 01:07:00",11955,5.269,181.1,3.729,0.369,20.36,108.9653,22.24,23.13,40.32,0,111,13.16,23.07,143.1
"2010-07-25 01:07:30",11956,5.708,179.2,4.32,0.307,20.32,108.9653,22.24,23.13,40.22,0,111,13.16,23.07,141.2
"2010-07-25 01:08:00",11957,5.094,175.4,4.054,0.326,20.31,108.9653,22.24,23.13,40.16,0,111,13.15,23.07,137.4
"2010-07-25 01:08:30",11958,5.316,185.2,4.243,0.3,20.29,108.9647,22.24,23.12,40.22,0,111,13.16,23.07,147.2
"2010-07-25 01:09:00",11959,6.158,181.2,2.364,0.199,20.27,108.9647,22.24,23.11,40.18,0,111,13.15,23.07,143.2
"2010-07-25 01:09:30",11960,5.954,186.1,2.335,0.237,20.33,108.9639,22.23,23.11,40.15,0,111,13.15,23.06,148.1
"2010-07-25 01:10:00",11961,5.723,185.2,2.971,0.558,20.35,108.9644,22.23,23.12,40.15,0,111.1,13.16,23.06,147.2
"2010-07-25 01:10:30",11962,5.272,188.9,2.497,0.234,20.33,108.9653,22.24,23.11,40.15,0,111,13.16,23.07,150.9
"2010-07-25 01:11:00",11963,4.857,196.2,2.445,0.177,20.32,108.9628,22.23,23.09,40.16,0,111,13.15,23.06,158.2
"2010-07-25 01:11:30",11964,5.937,191.1,2.608,0.413,20.34,108.9473,22.19,23.1,40.31,0,111,13.16,23.02,153.1
"2010-07-25 01:12:00",11965,5.944,192.4,2.761,0.205,20.37,108.9397,22.17,23.1,40.31,0,111,13.15,23.00,154.4
"2010-07-25 01:12:30",11966,5.727,193.8,2.051,0.222,20.41,108.9344,22.16,23.09,40.33,0,111,13.15,22.99,155.8
"2010-07-25 01:13:00",11967,5.862,196.1,1.754,0.139,20.35,108.9316,22.15,23.08,40.24,0,111,13.15,22.98,158.1
"2010-07-25 01:13:30",11968,5.709,189.1,3.935,0.29,20.4,108.9316,22.15,23.07,40.01,0,111,13.15,22.98,151.1
"2010-07-25 01:14:00",11969,5.31,187.1,2.178,0.251,20.44,108.9316,22.15,23.06,39.97,0,111,13.15,22.98,149.1
"2010-07-25 01:14:30",11970,4.836,192.9,5.924,0.143,20.39,108.9316,22.15,23.04,40.07,0,111,13.15,22.98,154.9
"2010-07-25 01:15:00",11971,5.992,191.1,2.165,0.326,20.46,108.9316,22.15,23.05,40.15,0,111,13.15,22.98,153.1
"2010-07-25 01:15:30",11972,6.004,196.3,3.851,0.328,20.44,108.9316,22.15,23.05,40.19,0,111,13.15,22.98,158.3
"2010-07-25 01:16:00",11973,5.712,194,1.81,0.271,20.48,108.9316,22.15,23.05,40.2,0,111,13.15,22.98,156.0
"2010-07-25 01:16:30",11974,5.212,197,3.122,0.142,20.44,108.9316,22.15,23.04,40.16,0,111,13.15,22.98,159.0
"2010-07-25 01:17:00",11975,5.366,190.2,7.534,0.365,20.48,108.9316,22.15,23.05,40.18,0,111,13.15,22.98,152.2
"2010-07-25 01:17:30",11976,5.424,184.6,3.105,0.279,20.46,108.9316,22.15,23.05,40.14,0,111,13.15,22.98,146.6
"2010-07-25 01:18:00",11977,5.571,179.7,5.014,0.298,20.47,108.9316,22.15,23.06,40.11,0,111,13.15,22.98,141.7
"2010-07-25 01:18:30",11978,5.585,186.8,3.301,0.165,20.46,108.9316,22.15,23.05,40.14,0,111,13.15,22.98,148.8
"2010-07-25 01:19:00",11979,5.742,179.9,5.579,0.386,20.45,108.9316,22.15,23.04,40.09,0,111,13.15,22.98,141.9
"2010-07-25 01:19:30",11980,6.205,176.4,5.079,0.349,20.46,108.9316,22.15,23.05,40.05,0,111,13.15,22.98,138.4
"2010-07-25 01:20:00",11981,5.784,185.7,1.455,0.261,20.48,108.9316,22.15,23.05,40.06,0,111,13.15,22.98,147.7
"2010-07-25 01:20:30",11982,5.327,184.3,5.913,0.277,20.45,108.9316,22.15,23.05,40.09,0,111,13.15,22.98,146.3
"2010-07-25 01:21:00",11983,5.284,173.6,3.415,0.297,20.47,108.9316,22.15,23.04,40.01,0,111,13.15,22.98,135.6
"2010-07-25 01:21:30",11984,5.502,180.2,9.88,0.49,20.5,108.9316,22.15,23.03,40.08,0,111,13.16,22.98,142.2
"2010-07-25 01:22:00",11985,5.385,179.8,3.273,0.301,20.52,108.9316,22.15,23.04,40.19,0,111,13.16,22.98,141.8
"2010-07-25 01:22:30",11986,5.547,178.5,2.798,0.172,20.48,108.9316,22.15,23.04,39.52,0,111,13.15,22.98,140.5
"2010-07-25 01:23:00",11987,5.405,174.3,2.015,0.165,20.46,108.9316,22.15,23.03,39.32,0,111,13.15,22.98,136.3
"2010-07-25 01:23:30",11988,5.003,174.8,2.345,0.25,20.5,108.9316,22.15,23.02,39.56,0,111,13.16,22.98,136.8
"2010-07-25 01:24:00",11989,4.951,180.2,3.108,0.443,20.45,108.9316,22.15,23.03,39.7,0,111,13.15,22.98,142.2
"2010-07-25 01:24:30",11990,5.502,181.1,3.147,0.296,20.46,108.9316,22.15,23.03,39.67,0,111,13.15,22.98,143.1
"2010-07-25 01:25:00",11991,4.904,176.5,1.582,0.138,20.44,108.9316,22.15,23.03,39.19,0,111,13.16,22.98,138.5
"2010-07-25 01:25:30",11992,4.789,182.2,2.043,0.193,20.47,108.9325,22.15,23.03,39.43,0,111,13.16,22.98,144.2
"2010-07-25 01:26:00",11993,4.713,181.4,1.287,0.066,20.45,108.9316,22.15,23.05,39.54,0,111,13.16,22.98,143.4
"2010-07-25 01:26:30",11994,4.53,180.3,1.946,0.214,20.44,108.9319,22.15,23.05,39.53,0,111,13.16,22.98,142.3
"2010-07-25 01:27:00",11995,4.593,177.1,2.582,0.176,20.46,108.9331,22.15,23.05,39.51,0,111,13.16,22.98,139.1
"2010-07-25 01:27:30",11996,4.82,176.8,2.281,0.323,20.49,108.9343,22.16,23.05,39.85,0,111,13.16,22.99,138.8
"2010-07-25 01:28:00",11997,5.126,182.2,1.262,0.28,20.5,108.9352,22.16,23.04,39.9,0,111,13.16,22.99,144.2
"2010-07-25 01:28:30",11998,4.664,183.9,2.737,0.151,20.5,108.9356,22.16,23.04,39.96,0,111,13.16,22.99,145.9
"2010-07-25 01:29:00",11999,4.877,187.9,4.115,0.172,20.51,108.934,22.16,23.04,40.07,0,111,13.16,22.99,149.9
"2010-07-25 01:29:30",12000,4.965,191.9,3.12,0.236,20.48,108.9352,22.16,23.04,40.09,0,111,13.16,22.99,153.9
"2010-07-25 01:30:00",12001,5.503,194.1,2.003,0.235,20.5,108.9342,22.16,23.03,40.17,0,111,13.16,22.99,156.1
"2010-07-25 01:30:30",12002,5.443,191.7,2.328,0.126,20.52,108.9224,22.13,23.04,40.2,0,111,13.15,22.96,153.7
"2010-07-25 01:31:00",12003,5.028,193.5,1.437,0.142,20.55,108.9265,22.14,23.01,40.39,0,111,13.15,22.97,155.5
"2010-07-25 01:31:30",12004,5.585,193.6,2.565,0.322,20.53,108.9322,22.15,23.02,40.21,0,111,13.15,22.98,155.6
"2010-07-25 01:32:00",12005,6.119,187.5,2.438,0.198,20.54,108.9346,22.16,23.02,40.19,0,111,13.15,22.99,149.5
"2010-07-25 01:32:30",12006,6.141,185.7,2.898,0.273,20.52,108.9341,22.16,23.03,40.38,0,111,13.15,22.99,147.7
"2010-07-25 01:33:00",12007,6.064,188.2,2.827,0.191,20.53,108.9347,22.16,23.01,40.21,0,111,13.15,22.99,150.2
"2010-07-25 01:33:30",12008,5.529,193.9,3.195,0.12,20.52,108.9379,22.17,23.03,40.66,0,111,13.15,23.00,155.9
"2010-07-25 01:34:00",12009,5.573,190.3,2.483,0.105,20.54,108.9229,22.13,23.01,40.8,0,111,13.15,22.96,152.3
"2010-07-25 01:34:30",12010,5.719,193.6,4.632,0.31,20.58,108.9237,22.13,23.01,40.94,0,111,13.15,22.96,155.6
"2010-07-25 01:35:00",12011,5.82,196.5,5.519,0.318,20.54,108.9278,22.14,23.01,41.02,0,111,13.15,22.97,158.5
"2010-07-25 01:35:30",12012,5.728,189.1,8.01,0.688,20.58,108.9222,22.13,23.02,41.06,0,111,13.15,22.96,151.1
"2010-07-25 01:36:00",12013,5.752,192.3,3.521,0.246,20.57,108.9214,22.12,23.01,41.11,0,111,13.15,22.95,154.3
"2010-07-25 01:36:30",12014,5.237,190.6,4.174,0.243,20.59,108.9236,22.13,23,41.22,0,111,13.15,22.96,152.6
"2010-07-25 01:37:00",12015,5.741,188.7,4.389,0.374,20.57,108.9233,22.13,22.99,41.28,0,111,13.16,22.96,150.7
"2010-07-25 01:37:30",12016,5.838,184.7,2.031,0.241,20.59,108.9245,22.13,22.98,41.28,0,111,13.16,22.96,146.7
"2010-07-25 01:38:00",12017,5.378,193.2,3.737,0.356,20.64,108.9209,22.12,22.97,41.49,0,111,13.16,22.95,155.2
"2010-07-25 01:38:30",12018,5.609,188.6,1.179,0.253,20.63,108.9114,22.1,22.96,41.3,0,111,13.16,22.93,150.6
"2010-07-25 01:39:00",12019,6.085,186.8,1.685,0.146,20.64,108.9055,22.08,22.95,41.42,0,111,13.16,22.91,148.8
"2010-07-25 01:39:30",12020,5.893,187.3,1.245,0.224,20.69,108.9035,22.08,22.96,41.65,0,111,13.16,22.91,149.3
"2010-07-25 01:40:00",12021,5.312,191.9,3.768,0.145,20.69,108.9044,22.08,22.96,41.99,0,111,13.16,22.91,153.9
"2010-07-25 01:40:30",12022,5.437,198,4.011,0.234,20.62,108.9002,22.07,22.95,42,0,111,13.16,22.90,160.0
"2010-07-25 01:41:00",12023,5.191,200,2.398,0.153,20.65,108.8994,22.07,22.93,41.52,0,111,13.16,22.90,162.0
"2010-07-25 01:41:30",12024,4.853,199.1,2.293,0.235,20.64,108.9032,22.08,22.95,41.56,0,111,13.16,22.91,161.1
"2010-07-25 01:42:00",12025,5.257,197.6,2.072,0.369,20.65,108.9044,22.08,22.93,41.59,0,111,13.16,22.91,159.6
"2010-07-25 01:42:30",12026,5.172,198.7,3.656,0.164,20.66,108.903,22.08,22.94,41.62,0,111,13.16,22.91,160.7
"2010-07-25 01:43:00",12027,4.906,201,1.751,0.249,20.62,108.9001,22.07,22.94,41.6,0,111,13.16,22.90,163.0
"2010-07-25 01:43:30",12028,4.771,195,3.313,0.155,20.63,108.9,22.07,22.93,41.59,0,111,13.16,22.90,157.0
"2010-07-25 01:44:00",12029,5.002,193.7,2.902,0.128,20.71,108.8993,22.07,22.94,41.62,0,111,13.16,22.90,155.7
"2010-07-25 01:44:30",12030,4.782,198.4,2.024,0.163,20.66,108.899,22.07,22.93,41.64,0,111,13.16,22.90,160.4
"2010-07-25 01:45:00",12031,4.468,194.3,1.483,0.123,20.73,108.9,22.07,22.93,41.64,0,111,13.16,22.90,156.3
"2010-07-25 01:45:30",12032,5.143,191.8,3.651,0.198,20.77,108.9009,22.07,22.93,41.67,0,111,13.16,22.90,153.8
"2010-07-25 01:46:00",12033,5.258,187.6,2.877,0.175,20.8,108.9009,22.07,22.91,41.66,0,111,13.16,22.90,149.6
"2010-07-25 01:46:30",12034,5.431,183.8,5.733,0.319,20.85,108.9009,22.07,22.92,41.67,0,111,13.16,22.90,145.8
"2010-07-25 01:47:00",12035,5.336,181.1,1.579,0.16,20.91,108.9009,22.07,22.93,41.63,0,111,13.16,22.90,143.1
"2010-07-25 01:47:30",12036,5.116,185.8,2.565,0.208,20.93,108.9009,22.07,22.91,41.64,0,111,13.16,22.90,147.8
"2010-07-25 01:48:00",12037,5.017,184.8,3.371,0.298,20.96,108.9009,22.07,22.92,41.69,0,111,13.16,22.90,146.8
"2010-07-25 01:48:30",12038,5.297,181.7,2.058,0.15,20.96,108.9009,22.07,22.92,41.65,0,111,13.15,22.90,143.7
"2010-07-25 01:49:00",12039,5.063,182.8,1.62,0.2,20.99,108.8981,22.06,22.91,41.67,0,111,13.15,22.89,144.8
"2010-07-25 01:49:30",12040,5.305,183.4,1.535,0.278,21.01,108.8936,22.05,22.91,41.79,0,111,13.15,22.88,145.4
"2010-07-25 01:50:00",12041,5.08,183.7,5.948,0.316,21.02,108.8879,22.04,22.91,41.8,0,111,13.15,22.87,145.7